星链-33660 (STARLINK-33660)

导读

STARLINK-33660是美国SpaceX公司星链(Starlink)星座中的一颗低轨卫星互联网卫星,于2025年3月15日由美国发射入轨。星链计划旨在构建全球巨型低轨卫星互联网,为全球提供高速低延迟宽带服务。该卫星属于星链规模化组网阶段的一颗卫星,加入星座后进一步提升了星座覆盖能力,助力拓展全球卫星互联网服务范围。

基本信息
目录编号:
63278
目录名称:
STARLINK-33660
国际标识:
2025-053P
轨道中心:
EARTH
卫星名称:
星链-33660
卫星全名:
星链-33660 (STARLINK-33660)
卫星状态:
在轨 (已飞行538 天)
发射日期:
2025-03-15 UTC
国别 :
美国 (US)
星等 :
--
轨道信息
数据来源 国际轨道数据 AOE轨道数据
星历时间 2026-09-03T21:28:28+0800
18小时前
查看轨道信息
2026-09-04T02:00:00+0800
14小时前
查看轨道信息
半长轴 6861.194km 6861.217km
偏心率 0.0001403 0.0001162
轨道倾角 43.001° 43.001°
近地点辐角 277.177° 285.089°
升交点赤经 317.512° 316.452°
平近点角 82.892° 33.154°
近地点 482.094km 482.282km
远地点 484.02km 483.878km
周期 94.267分钟 94.267分钟
每日圈数 15.275775 15.2757
详细信息
固有亮度:
5
最大亮度:
2.5
卫星平台:
Starlink V1.0
覆盖范围:
全球
运营商:
太空探索技术公司
运营商所在国:
美国
制造商(研发单位):
太空探索技术公司
制造商所在国:
美国
使用方式:
暂无
卫星简介
Starlink 计划是 SpaceX 推出的全球卫星互联网项目,通过发射低轨道卫星,为全球尤其是偏远地区提供高速、低延迟的互联网服务。自 2019 年起,Starlink 已部署数千颗卫星,旨在缩小全球数字鸿沟,推动互联网普及。该项目还为军事、航空等行业提供通信支持,带来广泛经济效益。
2D轨道图
3D轨道图
轨道高度分析图
轨道倾角分析图
轨道综合分析图
查看轨道综合分析图
交会数据列表
事件ID 空间交会对象 最接近时刻(TCA) 交会距离 交会风险概率(CRP) 交会风险指数(CRI) 操作
CDM_260905-060205-796706-327821
2026-09-05T
06:02:46+0000
0.144 km
中距离
8.557882E-4 高风险 0.94
CDM_260904-054305-796706-327821
2026-09-04T
05:43:23+0000
0.582 km
远距离
9.336396E-5 中风险 0.74
CDM_260903-152905-870206-327822
2026-09-03T
15:29:45+0000
0.758 km
远距离
6.067078E-5 中风险 0.71
CDM_260904-071705-796706-327821
2026-09-04T
07:17:32+0000
0.858 km
远距离
2.857481E-5 中风险 0.64
CDM_260903-041406-116806-327822
2026-09-03T
04:14:33+0000
1.354 km
极远距离
8.819547E-6 低风险 0.54
CDM_260905-073605-796706-327821
2026-09-05T
07:36:55+0000
1.736 km
极远距离
2.743417E-6 低风险 0.44
CDM_260905-042805-796706-327821
2026-09-05T
04:28:36+0000
1.843 km
极远距离
2.326578E-6 低风险 0.42
CDM_260904-040905-796706-327821
2026-09-04T
04:09:13+0000
1.919 km
极远距离
2.091108E-6 低风险 0.41
CDM_260904-085105-796706-327821
2026-09-04T
08:51:41+0000
2.257 km
极远距离
1.437146E-6 低风险 0.38
CDM_260903-152206-327806-469921
2026-09-03T
15:22:07+0000
2.419 km
极远距离
1.430715E-6 低风险 0.38